Location: Cuzcurrita-R�o Tir�n
(42.5415°N, 2.9642°W)
Time: 14:05:18
(UTC+00:00)

Cosmos 1570 Rocket - Pass Details

Date: 27 February 2020
Orbit: 762 x 789 km, 74.1° (Epoch: 27 March)

Event Time Altitude Azimuth Distance (km) Brightness Sun altitude
Rises 19:19:15 0° 191° (S) 3,214 7.3 -15.7°
Reaches altitude 10° 19:21:36 10° 189° (S) 2,295 6.5 -16.1°
Maximum altitude 19:26:46 68° 107° (ESE) 826 3.9 -17.0°
Drops below altitude 10° 19:32:01 10° 25° (NNE) 2,326 6.3 -18.0°
Sets 19:34:25 0° 23° (NNE) 3,261 7.1 -18.4°
